PBO Station Position Time Series. Reference Frame : NAM14
Format Version,1.1.0
4-character ID,CN25
Station name,ComitandDMEX2012
Begin Date, 2014-02-13
End Date, 2019-10-07
Release Date, 2019-10-08
Reference position, 16.2320431505 North Latitude, -92.1352407427 East Longitude, 1649.24058 meters elevation,
Date, North (mm), East (mm), Vertical (mm), North Std. Deviation (mm), East Std. Deviation (mm),              Vertical Std. Deviation (mm), Quality,
2014-02-13,0.00, 0.00, 0.00, 1.81, 1.93, 8.66, repro,
2014-02-14,0.83, 2.85, 14.64, 1.66, 1.87, 7.71, repro,
2014-02-15,0.47, 2.61, 5.17, 1.63, 1.78, 7.55, repro,
2014-02-16,0.45, 4.14, -5.20, 1.68, 1.84, 7.84, repro,
2014-02-17,0.99, 3.03, 11.25, 1.75, 1.84, 8.18, repro,
2014-02-18,-3.15, 1.96, -8.18, 1.71, 1.84, 7.92, repro,
2014-02-19,-0.95, 3.46, 3.15, 1.80, 1.85, 8.27, repro,
2014-02-20,-0.79, 3.90, 12.93, 1.71, 1.80, 7.87, repro,
2014-02-21,-0.37, 2.82, -2.57, 1.65, 1.80, 7.63, repro,
2014-02-22,-0.35, 5.70, 2.67, 1.67, 1.84, 7.80, repro,
2014-02-23,0.63, 5.80, 7.22, 1.82, 1.99, 8.36, repro,
2014-02-24,0.45, 3.45, 1.97, 1.67, 1.90, 7.91, repro,
2014-02-25,-1.06, 2.12, 3.12, 1.74, 1.85, 8.06, repro,
2014-02-26,1.74, 4.33, 16.68, 1.70, 1.87, 8.10, repro,
2014-02-27,0.01, 4.12, 2.63, 1.69, 1.85, 7.98, repro,
2014-02-28,-0.34, 2.15, 18.10, 1.79, 1.92, 8.56, repro,
2014-03-01,-1.06, 2.67, -1.42, 1.67, 1.88, 7.80, repro,
2014-03-02,-0.26, 3.60, 2.44, 1.66, 1.83, 7.68, repro,
2014-03-03,1.25, 4.23, 15.27, 1.82, 1.89, 8.50, repro,
2014-03-04,-2.08, 1.25, -15.92, 1.89, 1.99, 8.66, repro,
2014-03-05,0.78, 4.12, 7.79, 1.82, 1.95, 8.67, repro,
2014-03-06,-0.86, 2.18, 8.67, 1.75, 2.01, 8.51, repro,
2014-03-07,0.62, 3.42, 6.32, 1.87, 2.14, 8.72, repro,
2014-03-08,-1.42, 2.84, 3.69, 1.75, 2.00, 8.33, repro,
2014-03-09,0.38, 5.55, 6.26, 1.78, 2.01, 8.41, repro,
2014-03-10,2.26, 2.61, 14.79, 1.71, 1.97, 8.32, repro,
2014-03-11,-0.10, 5.22, 5.51, 1.68, 1.82, 7.77, repro,
2014-03-12,-0.83, 4.43, 9.32, 1.77, 1.98, 8.22, repro,
2014-03-13,-0.52, 4.41, 16.86, 1.70, 1.98, 8.17, repro,
2014-03-14,1.04, 4.30, 13.25, 1.68, 1.85, 7.78, repro,
2014-03-15,-0.80, 5.07, 8.99, 1.68, 1.85, 7.87, repro,
2014-03-16,0.46, 4.60, 11.00, 1.72, 2.06, 8.28, repro,
2014-03-17,1.10, 1.70, 14.12, 1.66, 1.83, 7.66, repro,
2014-03-18,0.71, 5.00, 10.52, 1.67, 1.85, 7.73, repro,
2014-03-19,0.94, 5.27, 7.54, 1.69, 1.84, 7.80, repro,
2014-03-20,-1.00, 3.28, 11.85, 1.71, 1.90, 7.98, repro,
2014-03-21,0.24, 4.04, 24.52, 1.67, 1.87, 7.93, repro,
2014-03-22,0.58, 5.14, 14.33, 1.67, 1.87, 7.81, repro,
2014-03-23,0.61, 4.12, 15.18, 1.62, 1.85, 7.68, repro,
2014-03-24,-0.49, 3.37, 12.15, 1.65, 1.83, 7.71, repro,
2014-03-25,-0.63, 3.29, 16.45, 1.67, 1.89, 8.00, repro,
2014-03-26,1.22, 1.16, 12.10, 1.64, 1.83, 7.69, repro,
2014-03-27,2.23, 3.05, 12.72, 1.66, 1.84, 7.73, repro,
2014-03-28,2.67, 4.34, 4.92, 1.70, 1.95, 8.09, repro,
2014-03-29,0.27, 0.89, 24.61, 1.72, 1.91, 8.14, repro,
2014-03-30,-0.32, 2.08, 20.25, 1.67, 1.85, 7.87, repro,
2014-03-31,-2.12, 5.06, 20.21, 1.69, 1.89, 7.97, repro,
2014-04-01,0.32, 0.31, 17.54, 1.71, 1.94, 8.05, repro,
2014-04-02,4.46, 2.34, 12.86, 1.68, 1.86, 7.77, repro,
2014-04-03,-1.17, 2.17, 11.79, 1.69, 1.84, 7.88, repro,
2014-04-04,1.31, 2.24, 11.07, 1.70, 1.87, 8.06, repro,
2014-04-05,-1.11, 3.58, 22.94, 1.72, 1.89, 8.05, repro,
2014-04-06,-0.61, 1.02, 9.04, 1.71, 1.96, 8.05, repro,
2014-04-07,0.17, 1.75, 4.39, 1.68, 1.89, 7.87, repro,
2014-04-08,-1.29, 2.05, 3.94, 1.78, 2.01, 8.54, repro,
2014-04-09,-0.05, 2.06, 9.05, 1.69, 1.92, 7.98, repro,
2014-04-10,-0.33, 2.04, 6.30, 1.68, 1.97, 8.12, repro,
2014-04-11,1.01, 3.54, 10.54, 1.73, 1.98, 8.23, repro,
2014-04-12,-1.26, 2.37, 5.35, 1.72, 1.89, 7.95, repro,
2014-04-13,-1.12, 3.85, 1.12, 1.69, 1.93, 8.05, repro,
2014-04-14,-1.13, 2.26, 9.12, 1.69, 1.89, 7.93, repro,
2014-04-15,-0.35, 1.80, 22.64, 1.77, 2.02, 8.61, repro,
2014-04-16,-0.79, 1.65, 15.07, 1.76, 1.95, 8.59, repro,
2014-04-17,-0.48, 0.94, -4.00, 1.75, 1.97, 8.44, repro,
2014-04-18,-1.76, 3.18, 8.31, 1.65, 1.84, 7.81, repro,
2014-04-19,-1.13, 3.18, 22.04, 1.68, 1.88, 7.92, repro,
2014-04-20,-3.13, 0.16, 6.83, 1.65, 1.89, 7.83, repro,
2014-04-21,1.40, 2.42, 16.99, 1.67, 1.92, 7.98, repro,
2014-04-22,2.86, 2.55, 17.43, 1.72, 1.91, 8.12, repro,
2014-04-23,0.50, 3.62, 20.05, 1.73, 2.00, 8.31, repro,
2014-04-24,-1.28, 3.40, 17.79, 1.65, 1.90, 7.84, repro,
2014-04-25,-0.58, 1.85, 11.44, 1.67, 1.86, 7.81, repro,
2014-04-26,-1.13, 2.83, 20.82, 1.66, 1.86, 7.78, repro,
2014-04-27,1.42, 3.96, 17.08, 1.67, 1.94, 8.05, repro,
2014-04-28,0.47, 3.01, 7.35, 1.67, 1.90, 7.91, repro,
2014-04-29,0.53, 4.66, 16.20, 1.66, 1.92, 7.96, repro,
2014-04-30,-1.39, 4.06, 16.94, 1.74, 1.97, 8.31, repro,
2014-05-01,-1.30, 5.21, 23.66, 1.64, 1.84, 7.67, repro,
2014-05-02,-0.86, 1.28, 9.83, 1.65, 1.85, 7.74, repro,
2014-05-03,-2.82, 7.61, 19.49, 1.68, 1.87, 7.91, repro,
2014-05-04,-0.67, 3.38, 9.50, 1.68, 1.90, 7.91, repro,
2014-05-05,0.13, 5.19, 10.17, 1.66, 1.89, 7.94, repro,
2014-05-06,1.63, 2.63, 8.12, 1.67, 1.88, 7.89, repro,
2014-05-07,1.39, 5.71, 16.48, 1.69, 1.91, 8.00, repro,
2014-05-08,0.16, 4.26, 15.55, 1.71, 1.88, 7.98, repro,
2014-05-09,1.21, 6.90, 9.38, 1.70, 1.86, 7.90, repro,
2014-05-10,0.85, 2.76, 12.51, 1.67, 1.88, 7.87, repro,
2014-05-11,0.30, 5.07, 23.93, 1.67, 1.92, 8.01, repro,
2014-05-12,-1.68, 3.97, 21.23, 1.67, 1.89, 7.84, repro,
2014-05-13,-3.19, 5.49, 21.74, 1.82, 2.02, 8.70, repro,
2014-05-14,-0.08, 2.96, 20.77, 1.67, 1.89, 7.94, repro,
2014-05-15,-1.09, 4.29, 10.83, 1.71, 1.96, 8.04, repro,
2014-05-16,-0.28, 2.81, 10.35, 1.63, 1.84, 7.69, repro,
2014-05-17,1.09, 4.74, 12.40, 1.67, 1.93, 8.01, repro,
2014-05-18,1.43, 4.88, 14.03, 1.67, 1.94, 7.92, repro,
2014-05-19,-0.94, 4.68, 9.76, 1.64, 1.87, 7.81, repro,
2014-05-20,-0.42, 6.42, 18.44, 1.69, 1.95, 8.09, repro,
2014-05-21,0.39, 3.51, 7.43, 1.69, 1.96, 8.12, repro,
2014-05-22,0.46, 3.76, 12.44, 1.68, 1.87, 7.99, repro,
2014-05-23,0.04, 5.73, 17.13, 1.68, 1.99, 8.17, repro,
2014-05-24,0.44, 3.28, 19.16, 1.65, 1.90, 7.92, repro,
2014-05-25,-0.66, 4.21, 19.52, 1.67, 1.97, 8.01, repro,
2014-05-26,-1.20, 3.67, 14.11, 1.69, 1.97, 8.09, repro,
2014-05-27,-0.62, 5.33, 19.55, 1.79, 2.07, 8.56, repro,
2014-05-28,-1.65, 5.25, 22.94, 1.74, 1.91, 8.26, repro,
2014-05-29,-0.80, 3.00, 8.95, 1.70, 1.99, 8.20, repro,
2014-05-30,-1.69, 8.03, 15.39, 1.72, 1.99, 8.17, repro,
2014-05-31,-0.68, 5.00, 20.70, 1.69, 1.98, 8.16, repro,
2014-06-01,-2.08, 4.14, 18.57, 1.66, 1.95, 8.03, repro,
2014-06-02,-0.19, 4.44, 20.31, 1.66, 1.94, 8.00, repro,
2014-06-03,0.68, 5.10, 25.35, 1.69, 1.95, 8.03, repro,
2014-06-04,-1.10, 4.49, 17.32, 1.65, 1.94, 7.91, repro,
2014-06-05,-0.76, 4.73, 7.08, 1.67, 1.94, 7.93, repro,
2014-06-06,-1.73, 7.52, 14.08, 1.67, 1.95, 8.02, repro,
2014-06-07,-1.46, 5.32, 12.80, 1.71, 1.98, 8.19, repro,
2014-06-08,-0.59, 6.45, 12.87, 1.66, 1.94, 7.92, repro,
2014-06-09,-2.05, 7.23, 13.72, 1.71, 2.01, 8.13, repro,
2014-06-10,-0.27, 7.56, 24.40, 1.67, 1.95, 7.99, repro,
2014-06-11,-1.54, 5.70, 11.67, 1.73, 2.08, 8.39, repro,
2014-06-12,-3.23, 9.70, 14.17, 1.71, 2.01, 8.37, repro,
2014-06-13,-0.94, 6.48, 19.37, 1.78, 1.96, 8.38, repro,
2014-06-14,0.38, 7.53, 15.73, 1.68, 1.93, 8.01, repro,
2014-06-15,-1.00, 6.74, 5.24, 1.65, 1.88, 7.79, repro,
2014-06-16,-0.98, 4.56, 8.46, 1.66, 1.90, 7.89, repro,
2014-06-17,-1.78, 3.77, 8.23, 1.66, 1.95, 7.98, repro,
2014-06-18,-0.72, 4.05, 11.02, 1.67, 1.92, 7.92, repro,
2014-06-19,0.85, 6.22, 11.57, 1.68, 1.89, 8.06, repro,
2014-06-20,0.43, 4.02, 11.20, 1.67, 1.97, 8.03, repro,
2014-06-21,0.48, 5.99, 5.41, 1.70, 2.07, 8.18, repro,
2014-06-22,-0.33, 9.13, 6.49, 1.86, 2.10, 8.76, repro,
2014-06-23,1.40, 5.53, 11.75, 1.70, 1.98, 8.18, repro,
2014-06-24,0.59, 4.88, 5.15, 1.66, 1.87, 7.89, repro,
2014-06-25,0.16, 3.91, 9.37, 1.65, 1.85, 7.81, repro,
2014-06-26,1.20, 3.17, 7.55, 1.68, 1.94, 7.97, repro,
2014-06-27,-1.17, 3.52, 10.69, 1.62, 1.86, 7.69, repro,
2014-06-28,1.75, 3.90, 9.05, 1.64, 1.92, 7.86, repro,
2014-06-29,-1.31, 3.80, 15.54, 1.62, 1.86, 7.66, repro,
2014-06-30,-0.27, 4.32, 13.95, 1.61, 1.92, 7.61, repro,
2014-07-01,1.15, 5.21, 13.98, 1.58, 1.83, 7.45, repro,
2014-07-02,-0.04, 5.39, 10.28, 1.63, 1.94, 7.74, repro,
2014-07-03,0.58, 4.20, 8.63, 1.63, 1.87, 7.73, repro,
2014-07-04,-0.75, 5.57, 3.35, 1.62, 1.85, 7.69, repro,
2014-07-05,-0.12, 4.34, 9.83, 1.63, 1.85, 7.67, repro,
2014-07-06,1.65, 5.45, 17.33, 1.61, 1.86, 7.67, repro,
2014-07-07,1.94, 6.86, 13.93, 1.65, 1.96, 7.81, repro,
2014-07-08,-1.03, 6.83, 11.25, 1.61, 1.94, 7.69, repro,
2014-07-09,0.13, 1.65, 10.75, 1.59, 1.85, 7.50, repro,
2014-07-10,0.43, 4.23, 23.88, 1.63, 1.90, 7.70, repro,
2014-07-11,-1.19, 4.71, 20.01, 1.60, 1.86, 7.55, repro,
2014-07-12,-0.73, 2.22, 17.35, 1.72, 2.00, 8.43, repro,
2014-07-13,-0.43, 3.74, 16.15, 1.62, 1.87, 7.76, repro,
2014-07-14,-0.81, 4.34, 12.08, 1.60, 1.86, 7.58, repro,
2014-07-15,2.65, 5.31, 22.22, 1.60, 1.91, 7.56, repro,
2014-07-16,1.64, 4.29, 5.61, 1.63, 1.95, 7.71, repro,
2014-07-17,2.56, 3.61, 7.73, 1.63, 1.88, 7.78, repro,
2014-07-18,-0.09, 3.63, 5.80, 1.62, 1.89, 7.64, repro,
2014-07-19,0.85, 5.44, 15.36, 1.61, 1.86, 7.54, repro,
2014-07-20,-0.06, 2.82, 18.66, 1.60, 1.88, 7.61, repro,
2014-07-21,-0.34, 1.18, 14.00, 1.61, 1.87, 7.62, repro,
2014-07-22,-0.04, 2.99, 16.64, 1.62, 1.87, 7.58, repro,
2014-07-23,-2.82, 0.62, 9.42, 1.61, 1.87, 7.58, repro,
2014-07-24,-1.49, 0.35, 14.69, 1.61, 1.87, 7.65, repro,
2014-07-25,0.19, 2.77, 12.97, 1.60, 1.87, 7.58, repro,
2014-07-26,-2.23, 0.05, 21.44, 1.65, 1.94, 7.76, repro,
2014-07-27,0.32, 2.39, 15.09, 1.65, 1.94, 7.78, repro,
2014-07-28,-1.67, 2.14, 13.76, 1.60, 1.87, 7.59, repro,
2014-07-29,0.19, 2.31, 20.82, 1.64, 1.94, 7.82, repro,
2014-07-30,-0.35, 4.45, 14.33, 1.61, 1.87, 7.61, repro,
2014-07-31,0.71, 3.87, 11.65, 1.58, 1.86, 7.54, repro,
2014-08-01,-1.11, 4.64, 16.42, 1.68, 1.91, 8.00, repro,
2014-08-02,-0.02, 4.51, 9.63, 1.62, 1.87, 7.77, repro,
2014-08-03,-0.88, 4.49, 3.33, 1.70, 1.90, 7.99, repro,
2014-08-04,-0.37, 5.03, -2.92, 1.63, 1.89, 7.71, repro,
2014-08-05,-1.04, 2.95, 4.27, 1.65, 1.91, 7.91, repro,
2014-08-06,-1.23, 4.85, 8.56, 1.62, 1.86, 7.69, repro,
2014-08-07,-0.04, 3.63, 4.68, 1.65, 1.87, 7.81, repro,
2014-08-08,-0.18, 2.46, -3.96, 1.65, 1.90, 7.88, repro,
2014-08-09,-0.59, 4.30, 15.22, 1.63, 1.88, 7.75, repro,
2014-08-10,-0.83, 3.20, 18.23, 1.70, 1.97, 8.17, repro,
2014-08-11,-1.88, 3.53, 5.07, 1.63, 1.85, 7.74, repro,
2014-08-12,0.98, 1.38, 9.40, 1.71, 1.89, 8.11, repro,
2014-08-13,-1.07, 3.65, 9.24, 1.63, 1.86, 7.74, repro,
2014-08-14,-1.14, 4.05, 5.72, 1.70, 1.99, 8.41, repro,
2014-08-15,-1.64, 5.62, 10.85, 1.68, 1.96, 8.13, repro,
2014-08-16,-1.58, 2.37, 9.19, 1.68, 1.89, 8.12, repro,
2014-08-17,-2.89, 3.43, 1.17, 1.65, 1.92, 7.99, repro,
2014-08-18,-0.90, 4.54, 2.37, 1.62, 1.84, 7.72, repro,
2014-08-19,-0.66, 4.68, 2.91, 1.63, 1.87, 7.80, repro,
2014-08-20,-3.05, 2.45, 2.39, 1.73, 1.92, 8.56, repro,
2014-08-21,-1.34, 2.34, 13.06, 1.71, 1.96, 8.11, repro,
2014-08-22,-0.91, 4.40, 8.03, 1.64, 1.85, 7.81, repro,
2014-08-23,0.44, 2.36, 7.44, 1.62, 1.85, 7.76, repro,
2014-08-24,0.11, 4.98, 6.91, 1.70, 1.90, 8.23, repro,
2014-08-25,-2.40, 4.95, 4.90, 1.66, 1.90, 7.93, repro,
2014-08-26,-1.90, 4.89, 4.39, 1.67, 1.94, 8.01, repro,
2014-08-27,-0.86, 3.14, -9.53, 1.66, 1.88, 7.87, repro,
2014-08-28,-2.16, 2.87, 5.42, 1.73, 1.96, 8.12, repro,
2014-08-29,-3.68, 2.30, 12.91, 1.63, 1.90, 7.89, repro,
2014-08-30,-1.79, 5.83, 6.70, 1.66, 1.86, 7.86, repro,
2014-08-31,-1.50, 3.11, 13.68, 1.68, 1.88, 7.99, repro,
2014-09-01,-1.49, 4.62, 4.35, 1.67, 1.88, 7.94, repro,
2014-09-02,-1.47, 3.66, 2.45, 1.77, 2.04, 8.30, repro,
2014-09-03,-1.03, 3.50, -5.64, 1.72, 1.98, 8.07, repro,
2014-09-04,-1.27, 3.14, -7.39, 1.65, 1.85, 7.81, repro,
2014-09-05,0.66, 5.84, 11.18, 1.65, 1.87, 7.90, repro,
2014-09-06,-0.94, 5.53, 8.84, 1.66, 1.89, 8.00, repro,
2014-09-07,-3.28, 2.90, -1.14, 1.64, 1.84, 7.84, repro,
2014-09-08,-1.86, 2.14, -0.43, 1.65, 1.85, 7.86, repro,
2014-09-09,-1.80, 3.22, 3.55, 1.70, 1.89, 8.00, repro,
2014-09-10,-2.12, 4.91, 2.35, 1.65, 1.86, 7.91, repro,
2014-09-11,-2.29, 3.67, 9.05, 1.66, 1.85, 7.90, repro,
2014-09-12,-0.78, 5.71, 5.73, 1.66, 1.84, 7.94, repro,
2014-09-13,-1.86, 0.23, -4.65, 1.72, 1.89, 8.14, repro,
2014-09-14,-2.78, 3.07, 9.27, 1.67, 1.85, 7.90, repro,
2014-09-15,-3.35, 3.81, -5.16, 1.69, 1.87, 7.95, repro,
2014-09-16,-1.68, 4.49, -1.75, 1.63, 1.83, 7.78, repro,
2014-09-17,-1.68, 3.15, 5.95, 1.65, 1.85, 7.88, repro,
2014-09-18,0.04, 3.10, 4.68, 1.67, 1.87, 8.06, repro,
2014-09-19,-1.75, 1.23, -4.21, 1.73, 1.96, 8.44, repro,
2014-09-20,-1.67, 2.58, -3.15, 1.67, 1.83, 8.03, repro,
2014-09-21,0.88, 1.29, 5.05, 1.69, 1.83, 7.98, repro,
2014-09-22,0.10, 3.34, -9.59, 1.65, 1.82, 7.88, repro,
2014-09-23,-0.91, 3.49, 0.18, 1.62, 1.79, 7.83, repro,
2014-09-24,-1.92, 2.12, -7.80, 1.64, 1.82, 7.87, repro,
2014-09-25,-3.49, 1.47, -9.40, 1.73, 1.90, 8.46, repro,
2014-09-26,-2.24, 1.57, -8.66, 1.66, 1.85, 7.99, repro,
2014-09-27,-0.66, 0.88, -9.80, 1.69, 1.86, 8.13, repro,
2014-09-28,-2.50, 4.12, -14.26, 1.68, 1.83, 7.98, repro,
2014-09-29,0.47, 2.75, -2.30, 1.66, 1.82, 7.99, repro,
2014-09-30,-1.47, 3.63, -0.79, 1.66, 1.80, 7.90, repro,
2014-10-01,-1.90, 0.32, -11.25, 1.72, 1.86, 8.30, repro,
2014-10-02,-1.94, 1.55, -11.34, 1.68, 1.85, 8.07, repro,
2014-10-03,0.04, 2.92, -8.95, 1.66, 1.82, 7.93, repro,
2014-10-04,-1.44, 2.02, -11.08, 1.65, 1.83, 7.92, repro,
2014-10-05,-1.67, 0.54, -14.94, 1.64, 1.80, 7.84, repro,
2014-10-06,-3.66, 0.19, -8.53, 1.66, 1.89, 7.95, repro,
2014-10-07,-3.66, 6.35, -1.40, 1.68, 1.90, 8.13, repro,
2014-10-08,-4.09, 2.18, -14.98, 1.66, 1.88, 8.02, repro,
2014-10-09,-3.83, 1.02, -2.18, 1.65, 1.79, 7.87, repro,
2014-10-10,-0.75, 1.68, -6.08, 1.66, 1.77, 7.87, repro,
2014-10-11,-0.87, -1.21, -7.11, 1.61, 1.78, 7.72, repro,
2014-10-12,-2.45, -0.46, -3.99, 1.64, 1.78, 7.94, repro,
2014-10-13,-2.28, 2.78, -2.65, 1.66, 1.81, 7.95, repro,
2014-10-14,1.57, -0.51, -2.62, 1.67, 1.79, 7.88, repro,
2014-10-15,-2.84, -1.03, -2.74, 1.63, 1.77, 7.73, repro,
2014-10-16,-1.55, 0.83, -2.11, 1.65, 1.76, 7.81, repro,
2014-10-17,-3.05, 1.86, -13.26, 1.61, 1.75, 7.65, repro,
2014-10-18,-1.76, -0.19, -9.06, 1.63, 1.75, 7.70, repro,
2014-10-19,-0.31, 0.76, 3.92, 1.68, 1.82, 8.06, repro,
2014-10-20,-1.86, 1.60, -8.85, 1.72, 1.85, 8.18, repro,
2014-10-21,-1.37, 0.33, -7.08, 1.70, 1.85, 8.18, repro,
2014-10-22,-1.94, -0.75, -6.32, 1.66, 1.81, 8.01, repro,
2014-10-23,-2.18, 2.04, -5.23, 1.63, 1.77, 7.68, repro,
2014-10-24,-1.99, 0.05, -9.04, 1.67, 1.77, 7.85, repro,
2014-10-25,0.58, -0.88, -6.30, 1.72, 1.80, 8.06, repro,
2014-10-26,-1.67, 3.03, -10.08, 1.66, 1.79, 7.88, repro,
2014-10-27,-3.58, 0.99, -12.18, 5.16, 7.29, 33.06, repro,
2014-11-04,-0.16, 1.44, -5.79, 4.24, 4.61, 20.01, repro,
2014-11-05,-0.03, 2.19, -1.66, 1.71, 1.84, 8.17, repro,
2014-11-06,-0.58, 3.36, -7.63, 1.65, 1.76, 7.73, repro,
2014-11-07,0.02, 2.46, 0.09, 1.65, 1.77, 7.75, repro,
2014-11-08,-0.53, 0.92, -0.74, 1.67, 1.82, 8.01, repro,
2014-11-09,1.17, 2.28, -0.41, 1.66, 1.77, 7.78, repro,
2014-11-10,-0.25, 0.88, -4.33, 1.65, 1.74, 7.69, repro,
2014-11-11,-0.05, -0.14, -6.88, 1.66, 1.75, 7.80, repro,
2014-11-12,-0.63, 2.33, 4.56, 1.65, 1.77, 7.74, repro,
2014-11-13,-1.12, 2.80, -0.38, 1.68, 1.76, 7.82, repro,
2014-11-14,-1.95, 3.15, 3.43, 1.66, 1.76, 7.79, repro,
2014-11-15,-0.94, 1.62, -0.40, 1.78, 1.83, 8.25, repro,
2014-11-16,0.08, 3.38, -3.46, 1.70, 1.83, 8.02, repro,
2014-11-17,-1.71, 2.97, -6.03, 1.76, 1.97, 8.31, repro,
2014-11-18,-2.10, 5.09, -9.84, 1.65, 1.78, 7.79, repro,
2014-11-19,-0.19, 3.24, -1.64, 1.75, 1.79, 8.11, repro,
2014-11-20,-0.15, 2.91, -2.11, 1.76, 1.91, 8.37, repro,
2014-11-21,-0.65, 3.25, 1.66, 1.79, 2.06, 8.62, repro,
2014-11-22,-1.22, 4.68, 13.41, 1.87, 2.08, 8.86, repro,
2014-11-23,-0.80, 4.05, 10.21, 1.68, 1.81, 7.90, repro,
2014-11-24,0.27, 4.89, 7.04, 1.71, 1.88, 8.17, repro,
2014-11-25,0.41, 4.85, 14.07, 1.70, 1.82, 7.96, repro,
2014-11-26,0.01, 3.03, 9.30, 1.68, 1.78, 7.80, repro,
2014-11-27,-1.29, 4.52, 5.65, 1.66, 1.74, 7.68, repro,
2014-11-28,0.44, 5.63, 10.94, 1.66, 1.82, 7.76, repro,
2014-11-29,-1.18, 4.48, 9.71, 1.65, 1.75, 7.66, repro,
2014-11-30,1.36, 3.20, 15.33, 1.67, 1.82, 7.86, repro,
2014-12-01,-0.78, 3.60, 12.62, 1.67, 1.76, 7.74, repro,
2014-12-02,0.42, 2.90, 14.21, 1.67, 1.81, 7.79, repro,
2014-12-03,0.32, 3.56, 9.32, 1.65, 1.75, 7.68, repro,
2014-12-04,0.41, 3.36, 14.18, 1.66, 1.82, 7.88, repro,
2014-12-05,-0.69, 1.80, 0.13, 1.65, 1.81, 7.80, repro,
2014-12-06,-0.11, 2.52, 11.28, 1.72, 1.84, 7.91, repro,
2014-12-07,-1.54, 1.27, 10.77, 1.66, 1.74, 7.67, repro,
2014-12-08,-0.12, 1.01, 7.56, 1.65, 1.75, 7.70, repro,
2014-12-09,0.09, 1.39, 8.09, 1.64, 1.75, 7.66, repro,
2014-12-10,0.87, 2.66, 9.67, 1.67, 1.81, 7.91, repro,
2014-12-11,0.77, 4.08, 13.96, 1.74, 1.84, 8.19, repro,
2014-12-12,1.20, 4.49, 15.36, 1.68, 1.75, 7.74, repro,
2014-12-13,-0.41, 4.08, 12.33, 1.65, 1.73, 7.65, repro,
2014-12-14,0.01, 3.99, 11.53, 1.75, 1.90, 8.39, repro,
2014-12-15,0.50, 3.21, 13.63, 1.67, 1.81, 7.89, repro,
2014-12-16,0.33, 2.82, 10.33, 1.69, 1.87, 8.06, repro,
2014-12-17,1.42, 3.86, 19.41, 1.68, 1.78, 7.94, repro,
2014-12-18,-0.27, 5.28, 8.63, 1.64, 1.72, 7.56, repro,
2014-12-19,-0.92, 4.95, 7.82, 1.68, 1.75, 7.83, repro,
2014-12-20,0.04, 4.08, 1.58, 1.64, 1.74, 7.59, repro,
2014-12-21,0.45, 2.71, 7.03, 1.65, 1.80, 7.84, repro,
2014-12-22,-1.63, 4.25, 9.71, 1.81, 1.81, 8.15, repro,
2014-12-23,-0.48, 5.19, 10.48, 1.69, 1.85, 7.83, repro,
2014-12-24,-0.75, 4.33, 9.88, 1.64, 1.73, 7.55, repro,
2014-12-25,1.43, 5.44, 14.94, 1.62, 1.81, 7.61, repro,
2014-12-26,0.62, 6.10, 11.93, 1.63, 1.74, 7.54, repro,
2014-12-27,0.66, 4.54, 18.04, 1.65, 1.74, 7.62, repro,
2014-12-28,-1.22, 4.72, 12.48, 1.63, 1.75, 7.61, repro,
2014-12-29,0.61, 5.88, 15.75, 1.64, 1.73, 7.59, repro,
2014-12-30,-0.31, 5.61, 16.32, 1.61, 1.73, 7.52, repro,
2014-12-31,-0.30, 4.81, 15.17, 1.70, 1.79, 7.89, repro,
2015-01-01,0.92, 6.14, 18.97, 1.63, 1.74, 7.63, repro,
2015-01-02,0.54, 4.23, 11.95, 1.65, 1.75, 7.70, repro,
2015-01-03,1.48, 6.78, 22.02, 1.64, 1.74, 7.64, repro,
2015-01-04,0.98, 4.20, 15.27, 1.63, 1.79, 7.69, repro,
2015-01-05,-1.12, 1.71, -1.60, 1.61, 1.76, 7.65, repro,
2015-01-06,-1.59, 2.49, 0.27, 1.65, 1.79, 7.73, repro,
2015-01-07,-2.02, 2.81, 10.49, 1.67, 1.81, 7.86, repro,
2015-01-08,-2.05, 0.76, 12.87, 1.67, 1.82, 7.90, repro,
2015-01-09,1.59, 3.69, 23.73, 1.68, 1.88, 7.95, repro,
2015-01-10,-0.05, 3.62, 10.31, 1.63, 1.77, 7.65, repro,
2015-01-11,1.67, 3.87, 9.10, 1.66, 1.83, 7.85, repro,
2015-01-12,0.72, 4.37, 9.72, 1.64, 1.78, 7.69, repro,
2015-01-13,0.19, 4.23, 12.65, 1.66, 1.78, 7.80, repro,
2015-01-14,1.93, 4.72, 18.56, 1.65, 1.77, 7.73, repro,
2015-01-15,1.88, 3.12, 6.78, 1.66, 1.83, 7.89, repro,
2015-01-16,1.71, 2.70, 9.89, 1.67, 1.81, 7.85, repro,
2015-01-17,2.42, 4.26, 2.59, 1.72, 1.90, 8.04, repro,
2015-01-18,1.07, 3.84, 9.68, 1.68, 1.90, 7.99, repro,
2015-01-19,1.43, 5.16, 22.63, 1.65, 1.77, 7.73, repro,
2015-01-20,0.95, 4.54, 9.88, 1.63, 1.77, 7.71, repro,
2015-01-21,1.46, 2.52, 5.57, 1.66, 1.83, 7.94, repro,
2015-01-22,1.85, 2.95, 8.18, 1.63, 1.79, 7.73, repro,
2015-01-23,0.64, 4.52, 11.13, 1.71, 1.82, 8.15, repro,
2015-01-24,2.06, 4.95, 10.88, 1.69, 1.79, 8.03, repro,
2015-01-25,0.93, 3.34, 13.29, 1.65, 1.78, 7.77, repro,
2015-01-26,1.97, 3.66, 11.73, 1.73, 1.83, 8.36, repro,
2015-01-27,2.54, 4.19, 10.40, 1.67, 1.86, 7.99, repro,
2015-01-28,0.91, 3.38, 15.98, 1.71, 1.86, 8.21, repro,
2015-01-29,-0.38, 4.83, 5.07, 1.67, 1.79, 7.82, repro,
2015-01-30,0.33, 4.41, 14.55, 1.68, 1.82, 7.92, repro,
2015-01-31,0.20, 5.13, 9.21, 1.65, 1.79, 7.75, repro,
2015-02-01,0.95, 2.01, 9.38, 1.69, 1.88, 8.09, repro,
2015-02-02,2.97, 2.88, 16.38, 1.67, 1.79, 7.83, repro,
2015-02-03,2.27, 2.05, 13.25, 1.68, 1.80, 7.92, repro,
2015-02-04,0.52, 3.92, 14.52, 1.65, 1.80, 7.84, repro,
2015-02-05,1.37, 3.66, 10.72, 1.67, 1.79, 7.82, repro,
2015-02-06,0.74, 3.30, 6.61, 1.67, 1.79, 8.03, repro,
2015-02-07,1.67, 1.38, 9.45, 1.70, 1.90, 8.21, repro,
2015-02-08,2.73, 1.37, 8.05, 1.71, 1.90, 8.10, repro,
2015-02-09,1.98, 0.68, 21.55, 1.67, 1.79, 7.90, repro,
2015-02-10,-1.83, 1.39, 10.44, 1.76, 1.83, 8.63, repro,
2015-02-11,0.20, 1.79, 5.84, 1.72, 1.97, 8.30, repro,
2015-02-12,-0.05, 0.44, 12.95, 1.73, 1.93, 8.19, repro,
2015-02-13,0.32, 3.50, 10.19, 1.68, 1.83, 7.99, repro,
2015-02-14,-1.15, 3.88, 9.25, 1.69, 1.88, 8.15, repro,
2015-02-15,-0.18, 3.80, 19.60, 1.67, 1.79, 7.89, repro,
2015-02-16,0.78, 3.15, 17.75, 1.66, 1.78, 7.84, repro,
2015-02-17,1.27, 2.43, 20.15, 1.66, 1.84, 7.96, repro,
2015-02-18,1.58, 2.31, 15.00, 1.66, 1.81, 7.92, repro,
2015-02-19,0.53, 2.27, 10.98, 1.70, 1.84, 8.09, repro,
2015-02-20,0.07, 5.49, 15.47, 1.73, 1.84, 8.20, repro,
2015-02-21,-0.19, 1.63, 14.60, 1.67, 1.82, 7.89, repro,
2015-02-22,-0.68, 3.31, 5.59, 1.67, 1.80, 7.90, repro,
2015-02-23,0.16, 3.02, 19.82, 1.67, 1.88, 8.07, repro,
2015-02-24,-0.26, 2.80, 15.42, 1.73, 1.86, 8.18, repro,
2015-02-25,-0.83, 3.47, 16.67, 1.79, 1.92, 8.38, repro,
2015-02-26,0.19, 2.54, 14.93, 1.72, 1.82, 8.28, repro,
2015-02-27,0.95, 4.90, 16.26, 1.67, 1.80, 7.86, repro,
2015-02-28,1.35, 3.86, 15.83, 1.70, 1.84, 7.98, repro,
2015-03-01,-1.19, 2.41, 19.45, 1.70, 1.90, 8.04, repro,
2015-03-02,-2.73, 2.80, 11.36, 1.70, 1.80, 7.93, repro,
2015-03-03,-0.90, 4.36, 19.88, 1.72, 1.81, 8.06, repro,
2015-03-04,1.67, 4.74, 22.70, 1.67, 1.78, 7.81, repro,
2015-03-05,1.42, 4.24, 16.56, 1.72, 1.88, 7.97, repro,
2015-03-06,-1.18, 1.11, 24.39, 1.74, 1.91, 8.13, repro,
2015-03-07,-1.20, 1.56, 13.52, 1.74, 1.84, 8.21, repro,
2015-03-08,0.64, 4.03, 22.34, 1.67, 1.81, 7.96, repro,
2015-03-09,1.46, 4.02, 22.07, 1.65, 1.80, 7.81, repro,
2015-03-10,3.27, 3.37, 3.47, 1.72, 1.86, 8.10, repro,
2015-03-11,0.87, 3.65, 15.68, 1.71, 1.82, 8.06, repro,
2015-03-12,-0.58, 2.70, 15.25, 1.73, 1.83, 8.07, repro,
2015-03-13,2.01, 3.65, 22.43, 1.67, 1.84, 7.97, repro,
2015-03-14,0.02, 1.80, 11.85, 1.69, 1.89, 8.06, repro,
2015-03-15,1.10, 3.79, 14.44, 1.70, 1.81, 7.86, repro,
2015-03-16,-0.78, 1.28, 23.58, 1.67, 1.82, 7.94, repro,
2015-03-17,0.18, 4.17, 21.46, 1.71, 1.89, 8.10, repro,
2015-03-18,1.15, 3.14, 17.96, 1.67, 1.84, 7.94, repro,
2015-03-19,2.29, 2.13, 19.11, 1.65, 1.83, 7.80, repro,
2015-03-20,-0.77, 1.43, 9.42, 1.67, 1.81, 7.90, repro,
2015-03-21,1.81, 3.71, 21.07, 1.68, 1.83, 7.85, repro,
2015-03-22,2.31, -0.81, 31.81, 1.70, 1.86, 8.13, repro,
2015-03-23,-0.02, 2.92, 13.54, 1.68, 1.82, 7.93, repro,
2015-03-24,0.47, 2.22, 23.12, 1.67, 1.81, 7.80, repro,
2015-03-25,-0.39, 5.48, 16.77, 1.66, 1.81, 7.86, repro,
2015-03-26,-0.11, 4.74, 19.95, 1.69, 1.81, 7.84, repro,
2015-03-27,0.94, 2.43, 18.38, 1.79, 2.00, 8.63, repro,
2015-03-28,-0.22, 2.16, 9.06, 1.71, 1.88, 8.11, repro,
2015-03-29,0.06, 2.38, 11.32, 1.75, 1.91, 8.29, repro,
2015-03-30,-0.77, 3.26, 15.58, 1.70, 1.87, 8.18, repro,
2015-03-31,1.09, 1.65, 14.78, 1.70, 1.89, 8.11, repro,
2015-04-01,1.90, 2.54, 28.36, 1.75, 1.96, 8.41, repro,
2015-04-02,2.46, 3.38, 20.86, 1.91, 2.08, 8.94, repro,
2015-04-03,1.39, 3.65, 34.32, 1.70, 1.87, 8.07, repro,
2015-04-04,0.46, 2.71, 32.12, 1.68, 1.89, 7.93, repro,
2015-04-05,1.60, 2.11, 24.98, 1.65, 1.84, 7.80, repro,
2015-04-06,1.54, 3.59, 23.47, 1.64, 1.80, 7.70, repro,
2015-04-07,2.49, 1.04, 26.72, 1.74, 1.98, 8.24, repro,
2015-04-08,-0.17, 0.16, 11.12, 1.76, 2.06, 8.36, repro,
2015-04-09,1.17, 3.16, 20.17, 1.65, 1.82, 7.71, repro,
2015-04-10,3.22, -0.47, 14.52, 1.75, 1.96, 8.23, repro,
2015-04-11,1.26, -0.38, 29.16, 1.75, 1.97, 8.34, repro,
2015-04-12,3.01, 2.75, 19.15, 1.68, 1.87, 7.86, repro,
2015-04-13,0.98, 1.31, 10.51, 1.82, 2.08, 8.88, repro,
2015-04-14,-0.55, 3.70, 29.65, 1.82, 1.96, 8.56, repro,
2015-04-15,0.45, 4.49, 23.61, 1.81, 2.02, 8.68, repro,
2015-04-16,3.13, 4.98, 26.25, 1.75, 1.95, 8.28, repro,
2015-04-17,1.86, 1.46, 20.37, 1.81, 2.08, 8.74, repro,
2015-04-18,-0.02, 4.15, 20.56, 1.66, 1.86, 7.89, repro,
2015-04-19,-0.84, 3.85, 28.71, 1.70, 1.87, 8.05, repro,
2015-04-20,1.43, 5.50, 33.04, 1.68, 1.87, 7.97, repro,